FENGYUN 1C DEB

Satellite information

Favourite Embed

Satellite Type and Status

DEBRISIN ORBIT

Key statistics

Satellite FENGYUN 1C DEB at a glance.

Uptime

9613

Days in orbit

Revolutions

≈ 14.4

Per day

Orbit

SSO

Sun Synchronous Orbit

Inclination

99.1

Latest

Satellite identification and parameters

Extended collection of information and parameters for FENGYUN 1C DEB.

Object identification

Identified? True

Debris? True

Object name: FENGYUN 1C DEB

International designator: 1999-025BVB

Object number (NORAD): 31463

Object ID (CCSDS): 31463

Country: PEOPLES REPUBLIC OF CHINA (PRC)

Current information (Y/N): Y

RCS size: SMALL

Orbital parameters

Period: 100.242 minutes

Inclination: 99.0653 deg

SMA: 7148.167 km

Apoapsis: 922.881 km

Periapsis: 617.184 km

RAAN: 219.7576 deg

Eccentricy: 0.02138287

Argument of periapsis: 342.1565 deg

Mean anomaly: 17.2192 deg

Mean motion: 14.36516783 rev/day

Mean motion (dot): 0.00003962 rev/day2

B* drag term: 0.0010532069 1/REarth

Two-line elements (TLE)

Creation date: Sept. 1, 2025, 2:20 a.m.

Reference frame: TEME

Reference center: EARTH

Epoch: Aug. 31, 2025, 4:24 p.m. UTC

TLE line 0: 0 FENGYUN 1C DEB

TLE line 1: 1 31463U 99025BVB 25243.68356862 .00003962 00000-0 10532-2 0 9995

TLE line 2: 2 31463 99.0653 219.7576 0213829 342.1565 17.2192 14.36516783632400

Live tracking on map

Real-time ground track for satellite FENGYUN 1C DEB.

In-orbit conjunctions

A list of the most updated potential collisions computed for object FENGYUN 1C DEB.

Target Orbit TCA Probability of collision Miss distance Type
COSMOS 1275 DEB LEO 2025-03-11 06:17:40 0.0002484372 50.0 (m) DEBRIS
CZ-6A DEB LEO 2024-10-11 12:38:02 0.0001231515 181.0 (m) DEBRIS
COSMOS 2251 DEB LEO 2024-08-25 21:47:15 0.000443386 71.0 (m) DEBRIS

Associated space launch

Chinese polar orbiting meteorological satellite

FENGYUN 1C DEB was lifted into orbit during the mission ‘Long March 4B | Feng Yun 1C’, on board a Long March 4B space rocket.

The launch took place on May 10, 1999, 1:33 a.m. from Launch Complex 7.

For more information about the launch, click the button.

Launch to space Long March 4B | Feng Yun 1C
Long March 4B | Feng Yun 1C

Agency: N/A

Status: Launch Successful

Launch date: May 10, 1999, 1:33 a.m. UTC

Rocket: Long March 4B

Launch pad: Launch Complex 7

Location: Taiyuan Satellite Launch Center, People's Republic of China

...

Latest news about this satellite

There are no fresh news available about this satellite. Check back as we update our databases every day.


Newsletter sign-up

Weekly statistics, charts and insights to help you stay on top of the space industry.